Location: Keeble Observatory
(37.7625°N, 77.4755°W)
Time: 14:31:02
(UTC-04:00)

Daily predictions for brighter satellites

Satellite Brightness Start Highest point End
(mag) Time Altitude Azimuth Time Altitude Azimuth Time Altitude Azimuth
USA 238 DEB 3.8 20:38:43 10° SSW 20:45:21 56° ESE 20:52:05 10° NE
USA 238 3.8 20:38:51 10° SSW 20:45:28 55° ESE 20:52:11 10° NE
Meteor 2-12 Rocket 4.5 20:40:50 10° S 20:46:51 68° E 20:52:55 10° NNE
Resurs 1-3 3.9 20:44:22 10° SSE 20:48:35 50° ENE 20:52:50 10° N
Cosmos 1271 Rocket 4.1 20:44:57 10° NNW 20:48:44 42° W 20:52:27 10° SSW
Shenzhou-11 Module 2.6 20:46:59 10° W 20:49:54 55° NNW 20:52:50 10° ENE
Cosmos 1980 Rocket 3.0 20:45:05 10° N 20:50:15 35° ENE 20:55:24 10° SE
Cosmos 1500 4.0 20:47:07 10° NNE 20:50:39 33° ENE 20:54:10 10° SE
BREEZE-M R/B 3.0 20:46:20 10° SW 20:52:07 58° SE 20:55:14 10° ENE
ISS -2.9 20:50:29 10° SSW 20:53:20 28° SE 20:56:12 10° ENE
Cosmos 1812 2.7 20:55:35 10° S 20:59:25 86° E 21:03:16 10° N
YAOGAN 6 2.8 20:56:56 10° S 21:00:39 78° W 21:04:22 10° NNW
Cosmos 1802 Rocket 4.1 20:56:30 10° S 21:02:48 87° E 21:09:13 10° N
Cosmos 1833 Rocket 3.5 20:58:02 10° SW 21:03:33 56° WNW 21:09:06 10° NNE
H-2A R/B 3.5 21:03:36 10° ESE 21:07:04 20° ENE 21:10:36 10° NNE
Cosmos 304 Rocket 4.3 21:03:31 10° S 21:07:58 39° ESE 21:12:26 10° NE
DNEPR-1 R/B 3.8 21:05:02 10° S 21:08:59 44° ESE 21:13:18 10° NE
Cosmos 2369 4.3 21:03:36 10° NNW 21:09:09 58° WSW 21:14:41 10° S
Abrixas rocket 3.5 21:11:18 10° S 21:13:45 20° SE 21:15:55 11° E
Cosmos 2208 Rocket 4.5 21:12:56 10° S 21:17:43 38° ESE 21:22:30 10° NE
ERS-2 2.7 21:14:34 10° S 21:18:12 59° WSW 21:21:51 10° NNW
Cosmos 44 4.1 21:13:01 10° NW 21:18:16 57° WSW 21:23:33 10° SSE
Gblst 52 Del rocket 4.3 21:12:50 10° NW 21:18:20 67° SW 21:22:59 14° SE
NOSS 3-2 (A) 3.5 21:13:48 10° SSW 21:19:24 54° ESE 21:25:33 10° NE
SL-24 R/B 4.4 21:14:40 10° S 21:19:29 80° E 21:24:34 10° N
ATLAS CENTAUR R/B 2.0 21:15:10 10° NNW 21:19:36 51° NE 21:23:09 17° SE
USA 234 3.7 21:15:53 10° NE 21:22:23 69° NW 21:28:54 10° WSW
NOSS 3-2 (C) 3.8 21:17:28 10° S 21:22:50 39° ESE 21:28:37 10° NE
Cosmos 1975 Rocket 4.0 21:22:29 16° SE 21:25:02 28° E 21:28:44 10° NNE
Cosmos 1536 4.4 21:21:26 10° NNW 21:25:10 35° W 21:28:52 10° SSW
Cosmos 1674 Rocket 3.9 21:21:39 10° SSW 21:26:04 71° W 21:30:32 10° N
Okean 1 Rocket 3.2 21:21:53 10° N 21:26:10 54° E 21:29:27 16° SSE
Cosmos 1378 Rocket 3.5 21:22:11 10° S 21:26:27 66° E 21:30:45 10° NNE
Cosmos 1242 Rocket 4.1 21:24:23 10° NNE 21:27:11 20° ENE 21:28:22 17° E
Cosmos 2233 Rocket 4.2 21:21:29 10° SSE 21:27:21 50° E 21:33:17 10° NNE
Resurs 01 Rocket 2.2 21:25:57 10° S 21:30:16 56° W 21:34:36 10° NNW
ERS-1 Rocket 4.1 21:27:59 17° ESE 21:30:49 27° ENE 21:35:01 10° N
Atlas Centaur 2 2.2 21:28:05 10° SW 21:31:08 25° S 21:32:12 21° SSE
Tiangong 2 1.3 21:29:28 10° SW 21:32:28 44° SSE 21:34:27 19° E
Cosmos 2082 Rocket 4.0 21:28:36 10° SW 21:33:44 35° WNW 21:38:57 10° N
Cosmos 1975 3.2 21:32:12 10° N 21:36:06 46° E 21:38:14 23° SE
NOAA 11 4.3 21:30:42 10° S 21:36:10 76° WSW 21:41:39 10° NNW
COSMOS 2487 3.1 21:32:52 10° SSW 21:36:19 57° WNW 21:39:47 10° N
Cosmos 2322 Rocket 3.4 21:34:13 10° N 21:38:59 28° ENE 21:42:00 18° ESE
CZ-4B DEB 4.4 21:38:29 22° SSE 21:40:39 81° ENE 21:44:09 10° N
SL-16 R/B 3.2 21:40:26 10° N 21:45:31 33° ENE 21:48:26 21° ESE
Timation 2 Rocket 3.9 21:43:22 10° S 21:49:13 60° ESE 21:55:07 10° NNE
ARGOS 3.1 21:49:17 22° SSE 21:52:48 72° ENE 21:58:12 10° N
Meteor 1-19 Rocket 4.4 21:49:41 15° S 21:54:36 62° E 22:00:27 10° NNE
SPOT 5 3.9 21:54:04 22° E 21:55:17 25° ENE 21:58:56 10° NNE
CENTAUR R/B 3.1 21:55:23 26° SE 21:57:14 31° ESE 22:02:47 10° NE
GPS 2-04 Rocket1 3.1 21:54:19 10° W 21:58:27 50° SSW 21:59:43 37° SE
Helios 1A 3.8 22:03:55 30° E 22:04:45 33° ENE 22:08:29 10° N
ATLAS 3B R/B 3.5 21:59:56 10° SW 22:06:58 54° NW 22:13:45 10° NNE
Cosmos 1464 Rocket 4.3 22:09:53 30° SE 22:12:42 48° E 22:18:47 10° NNE
USA 32 4.1 22:13:14 10° N 22:18:25 60° E 22:20:04 40° SE
Cosmos 2084 3.3 22:17:48 29° SSW 22:19:52 68° ESE 22:24:00 10° NE
Terra 3.1 22:20:00 24° E 22:20:42 25° ENE 22:24:33 10° NNE
Cosmos 468 Rocket 4.5 22:19:31 10° SSW 22:24:45 61° WNW 22:29:58 10° N
USA 245 2.7 22:25:00 81° NNE 22:25:00 81° NNE 22:28:34 10° N
Lacrosse 5 rocket 4.0 22:23:38 10° N 22:25:18 12° NNE 22:26:57 10° NE
Shenzhou-11 Module 3.7 22:23:38 10° WNW 22:26:17 29° N 22:26:59 26° NNE
Cosmos 1937 Rocket 3.5 22:21:28 10° NNW 22:26:35 65° ENE 22:27:55 47° SE
Aureole 2 Rocket 4.4 22:25:25 10° NNE 22:26:40 17° NE 22:26:40 17° NE
ISS -1.7 22:26:54 10° W 22:29:47 28° NNW 22:32:40 10° NNE
MetOp-B 4.5 22:27:45 29° S 22:30:25 61° W 22:35:44 10° NNW
SL-08 RB Rocket 4.1 22:29:45 35° SSW 22:31:23 57° W 22:35:52 10° NNW
Cosmos 2360 Rocket 3.2 22:26:33 10° N 22:31:35 32° ENE 22:33:03 28° E
CARTOSAT-1 4.5 22:31:48 33° ENE 22:31:53 33° ENE 22:35:46 10° N
Cosmos 1980 Rocket 3.7 22:29:14 10° NW 22:34:05 30° WSW 22:37:31 17° SSW
Cosmos 1763 Rocket 3.6 22:34:07 21° SSW 22:37:42 76° WNW 22:43:01 10° NNE
Cosmos 2219 Rocket 4.5 22:36:16 10° NNE 22:37:42 11° NE 22:39:10 10° ENE
Meteor 2-9 Rocket 4.0 22:33:48 10° N 22:39:09 87° W 22:40:44 48° S
Cosmos 841 Rocket 3.4 22:37:55 45° S 22:39:31 77° ESE 22:44:48 10° NNE
Cosmos 1666 4.4 22:37:50 10° NNW 22:41:12 29° W 22:42:32 23° SW
Cosmos 540 Rocket 3.9 22:41:48 43° E 22:41:48 43° E 22:46:23 10° NNE
SPOT 1/Viking Rocket 3.4 22:40:45 54° SSE 22:41:55 79° ENE 22:47:06 10° N
Cosmos 1743 4.3 22:39:17 10° NNW 22:42:39 30° W 22:43:46 25° WSW
H-2A R/B 2.8 22:44:13 29° SSW 22:46:08 43° W 22:50:53 10° NNW
OAO 1 Rocket 4.3 22:41:39 10° WSW 22:46:55 63° S 22:47:11 62° SSE
Meteor 2-4 Rocket 3.9 22:45:42 29° SSW 22:48:27 64° W 22:53:56 10° N
CZ-2C R/B 3.8 22:43:46 10° NE 22:47:57 28° E 22:47:57 28° E
DMSP B5D2-2 4.3 22:44:19 10° N 22:49:35 68° WNW 22:52:04 31° SSW
Abrixas rocket 4.1 22:46:53 10° WSW 22:48:33 26° W 22:48:33 26° W
Cosmos 1340 Rocket 3.0 22:51:32 63° WSW 22:51:46 64° W 22:55:49 10° N
Helios 1B rocket 2.4 22:48:38 10° N 22:52:46 83° WNW 22:52:46 83° WNW
IGS 5A 3.8 22:53:25 56° NE 22:53:25 56° NE 22:57:07 10° N
Cosmos 1833 4.1 22:53:11 52° S 22:54:36 77° ESE 23:00:19 10° NNE
Cosmos 1455 Rocket 3.2 22:51:30 10° NNW 22:55:49 63° W 22:56:06 61° WSW
ATLAS CENTAUR R/B 3.8 22:55:16 10° WNW 22:58:16 17° WSW 22:59:25 16° SW
Cosmos 1025 Rocket 4.2 22:59:55 32° NE 22:59:55 32° NE 23:02:45 10° NNE
Spot 1 4.1 23:04:56 69° N 23:04:56 69° N 23:08:34 10° NNW
Tiangong 2 4.0 23:06:12 10° W 23:06:45 14° W 23:06:45 14° W
ERS-1 Rocket 4.3 23:07:59 26° SW 23:09:28 31° W 23:13:55 10° NW
BREEZE M DEB (TANK) 3.0 23:07:33 10° NW 23:13:13 53° W 23:13:13 53° W
Cosmos 2322 4.0 23:09:01 10° NNW 23:14:38 53° ENE 23:15:05 52° E
Meteor 1-29 4.5 23:11:18 10° N 23:13:37 36° NNW 23:13:37 36° NNW
Meteor 1-15 Rocket 4.1 23:10:23 10° N 23:16:10 86° W 23:16:45 73° S
Cosmos 1125 Rocket 4.0 23:12:30 10° N 23:17:27 45° ENE 23:17:27 45° ENE
Cosmos 2322 Rocket 3.0 23:17:55 10° NW 23:23:05 38° WSW 23:23:50 37° WSW
Cosmos 1066 Rocket 4.2 23:24:23 60° ENE 23:24:23 60° ENE 23:29:12 10° NNE
Cosmos 1092 Rocket 4.1 23:17:57 10° N 23:24:14 61° E 23:24:43 59° ESE
Cosmos 2237 Rocket 4.4 23:23:15 10° NNE 23:26:03 14° NE 23:27:50 12° ENE
SL-16 R/B 3.3 23:24:34 10° NW 23:29:32 32° WSW 23:30:19 31° WSW
Nadezhda 4 Rocket 3.9 23:24:39 10° N 23:30:59 80° W 23:31:47 68° SSW
Cosmos 836 Rocket 4.5 23:31:57 78° NNW 23:31:57 78° NNW 23:36:55 10° NNE
SPOT 5 4.3 23:33:18 25° W 23:33:18 25° W 23:36:57 10° NW
CZ-2C R/B 3.2 23:41:02 72° W 23:41:02 72° W 23:46:18 10° NNW
Cosmos 2237 4.1 23:35:09 10° NNW 23:40:45 84° NNE 23:40:45 84° NNE
Cosmos 2219 3.9 23:44:28 43° ENE 23:44:28 43° ENE 23:48:39 10° NNE
SJ 16-02 2.3 23:38:46 10° NNW 23:42:00 47° NNW 23:42:00 47° NNW
CENTAUR R/B 3.5 23:42:22 12° WSW 23:47:33 43° NW 23:54:02 10° NNE
Mayak 1.2 23:49:03 10° NE 23:50:06 15° NE 23:50:06 15° NE
